IK2ILW-4 Weather Reports


time (UTC)temp
C
wind
direction
speed
KPH
gust
KPH
rain 1hr
cm
rain 24hr
cm
rain mn
cm
humidity
%
barometer
mb
20260507095750 10 89 0.0 0.0 0.00 0.00 0.20 83 1014.0
20260507095245 10 96 0.0 0.0 0.00 0.00 0.20 80 1014.0
20260507094741 10 70 0.0 0.0 0.00 0.00 0.20 81 1014.0
20260507094241 10 227 0.0 0.0 0.00 0.00 0.20 76 1014.1
20260507093742 10 225 0.0 0.0 0.00 0.00 0.20 73 1014.1
20260507093238 10 227 0.0 0.0 0.00 0.00 0.20 80 1014.1
20260507092733 9 229 0.0 0.0 0.00 0.00 0.20 79 1014.1
20260507092230 9 237 0.0 0.0 0.00 0.00 0.20 77 1014.1
20260507091748 10 207 0.0 0.0 0.00 0.00 0.20 78 1014.1
20260507091246 9 251 0.0 0.0 0.00 0.00 0.20 80 1014.3
20260507090741 8 285 0.0 0.0 0.00 0.00 0.20 82 1014.3
20260507090237 8 257 0.0 0.0 0.00 0.00 0.20 84 1014.3
20260507085736 8 264 0.0 0.0 0.00 0.00 0.20 83 1014.3
20260507085233 8 243 0.0 0.0 0.00 0.00 0.20 84 1014.3
20260507084752 8 242 0.0 0.0 0.00 0.00 0.20 83 1014.3
20260507084247 8 241 0.0 0.0 0.00 0.00 0.20 84 1014.2
20260507083743 8 257 0.0 0.0 0.00 0.00 0.20 84 1014.2
20260507083239 8 231 0.0 0.0 0.00 0.00 0.20 86 1014.2
20260507082738 7 231 0.0 0.0 0.00 0.00 0.20 86 1014.1
20260507082241 7 229 0.0 0.0 0.00 0.00 0.20 85 1014.1
20260507081741 7 259 0.0 0.0 0.00 0.00 0.20 87 1014.1
20260507081241 7 263 0.0 0.0 0.00 0.00 0.20 87 1013.9
20260507080741 7 263 0.0 0.0 0.00 0.00 0.20 87 1013.9
20260507080241 7 267 0.0 0.0 0.00 0.00 0.20 85 1013.9
20260507075741 7 266 0.0 0.0 0.00 0.00 0.20 85 1013.7
20260507075241 7 262 0.0 0.0 0.00 0.00 0.20 85 1013.7
20260507074741 8 259 0.0 0.0 0.00 0.00 0.20 88 1013.7
20260507074240 8 248 0.0 0.0 0.00 0.00 0.20 87 1013.8
20260507073736 8 75 0.0 0.0 0.00 0.00 0.20 81 1013.8
20260507073232 7 75 0.0 0.0 0.00 0.00 0.20 87 1013.8
20260507072751 7 75 0.0 0.0 0.00 0.00 0.20 88 1013.8
20260507072247 7 75 0.0 0.0 0.00 0.00 0.20 86 1013.8
20260507071743 7 75 0.0 0.0 0.00 0.00 0.20 88 1013.8
20260507071243 7 75 0.0 0.0 0.00 0.00 0.20 88 1013.5
20260507070738 7 75 0.0 0.0 0.00 0.00 0.20 88 1013.5
20260507070235 7 63 0.0 0.0 0.00 0.00 0.20 88 1013.5
20260507065734 7 63 0.0 0.0 0.00 0.00 0.20 87 1013.4
20260507065249 7 61 0.0 0.0 0.00 0.00 0.20 87 1013.4
20260507064745 6 103 0.0 0.0 0.00 0.00 0.20 91 1013.4
20260507064241 6 103 0.0 0.0 0.00 0.00 0.20 91 1013.4
20260507063740 6 102 0.0 0.0 0.00 0.00 0.20 88 1013.4
20260507063240 6 101 0.0 0.0 0.00 0.00 0.20 87 1013.4
20260507062739 6 101 0.0 0.0 0.00 0.00 0.20 85 1013.4
20260507062235 7 101 0.0 0.0 0.00 0.00 0.20 85 1013.4
20260507061751 6 108 0.0 0.0 0.00 0.00 0.20 90 1013.4
20260507061246 6 108 0.0 0.0 0.00 0.00 0.20 87 1013.3
20260507060743 6 108 0.0 0.0 0.00 0.00 0.20 86 1013.3
20260507060243 6 103 0.0 0.0 0.00 0.00 0.20 87 1013.3
20260507055745 6 109 0.0 0.0 0.00 0.00 0.20 87 1012.4
20260507055241 6 113 0.0 0.0 0.00 0.00 0.20 89 1012.4
20260507054741 5 113 0.0 0.0 0.00 0.00 0.20 93 1012.4
20260507054239 5 113 0.0 0.0 0.00 0.00 0.20 95 1012.3
20260507053735 4 113 0.0 0.0 0.00 0.00 0.20 96 1012.3
20260507053234 4 113 0.0 0.0 0.00 0.00 0.20 96 1012.3
20260507052731 3 113 0.0 0.0 0.00 0.00 0.20 97 1012.1
20260507052230 3 113 0.0 0.0 0.00 0.00 0.20 97 1012.1
20260507051730 3 113 0.0 0.0 0.00 0.00 0.20 96 1012.1
20260507051230 3 113 0.0 0.0 0.00 0.00 0.20 96 1012.0
20260507050747 3 107 0.0 0.0 0.00 0.00 0.20 96 1012.0
20260507050243 3 105 0.0 0.0 0.00 0.00 0.20 96 1012.0
20260507045739 3 101 0.0 0.0 0.00 0.00 0.20 95 1011.9
20260507045240 4 108 0.0 0.0 0.00 0.00 0.20 93 1011.9
20260507044743 5 120 0.0 0.0 0.00 0.00 0.20 92 1011.9
20260507044239 5 151 0.0 0.0 0.00 0.00 0.20 91 1011.9
20260507043738 5 153 0.0 0.0 0.00 0.00 0.20 91 1011.9
20260507043234 5 151 0.0 0.0 0.00 0.00 0.20 92 1011.9
20260507042750 4 172 0.0 0.0 0.00 0.00 0.20 93 1011.9
20260507042247 4 172 0.0 0.0 0.00 0.00 0.20 94 1011.9
20260507041746 3 172 0.0 0.0 0.00 0.00 0.20 95 1011.9
20260507041243 3 200 0.0 0.0 0.00 0.00 0.20 95 1012.6
20260507040742 3 200 0.0 0.0 0.00 0.00 0.20 95 1012.6
20260507040237 3 225 0.0 0.0 0.00 0.00 0.20 95 1012.6
20260507035733 3 283 0.0 0.0 0.00 0.00 0.20 96 1012.8
20260507035229 3 283 0.0 0.0 0.00 0.00 0.20 96 1012.8
20260507034749 3 319 0.0 0.0 0.00 0.00 0.18 96 1012.8
20260507034245 3 311 0.0 0.0 0.00 0.00 0.18 96 1012.8
20260507033741 3 257 0.0 0.0 0.00 0.00 0.15 96 1012.8
20260507033241 3 262 0.0 0.0 0.00 0.00 0.13 96 1012.8
20260507032737 4 250 0.0 0.0 0.00 0.00 0.10 96 1012.8
20260507032240 4 224 0.0 0.0 0.00 0.00 0.10 97 1012.8
20260507031740 4 260 0.0 0.0 0.00 0.00 0.10 97 1012.8
20260507031240 4 350 0.0 0.0 0.00 0.00 0.10 97 1012.8
20260507030740 3 252 0.0 0.0 0.00 0.00 0.10 97 1012.8
20260507030240 3 252 0.0 0.0 0.00 0.00 0.10 97 1012.8
20260507025740 4 250 0.0 0.0 0.00 0.00 0.10 97 1012.8
20260507025239 4 238 0.0 0.0 0.00 0.00 0.10 97 1012.8
20260507024738 4 242 0.0 0.0 0.00 0.00 0.10 97 1012.8
20260507024238 4 240 0.0 0.0 0.00 0.00 0.10 97 1012.8
20260507023734 4 250 0.0 0.0 0.00 0.00 0.10 96 1012.8
20260507023234 4 260 0.0 0.0 0.00 0.00 0.10 97 1012.8
20260507022748 5 265 0.0 0.0 0.00 0.00 0.10 96 1012.5
20260507022247 5 281 0.0 0.0 0.00 0.00 0.10 96 1012.5
20260507021746 5 280 0.0 0.0 0.00 0.00 0.10 96 1012.5
20260507021242 5 278 0.0 0.0 0.00 0.00 0.08 95 1012.3
20260507020742 5 203 0.0 0.0 0.00 0.00 0.05 95 1012.3
20260507020240 5 203 0.0 0.0 0.00 0.00 0.05 94 1012.3
20260507015740 5 203 0.0 0.0 0.00 0.00 0.05 94 1012.1
20260507015240 5 202 0.0 0.0 0.00 0.00 0.03 93 1012.1
20260507014736 5 172 0.0 0.0 0.00 0.00 0.03 91 1012.1
20260507014232 5 157 0.0 0.0 0.00 0.00 0.03 90 1012.0
20260507013730 5 120 0.0 0.0 0.00 0.00 0.03 90 1012.0
20260507013230 5 110 0.0 0.0 0.00 0.00 0.03 92 1012.0
20260507012751 5 115 0.0 0.0 0.00 0.00 0.03 93 1011.9
20260507012246 5 102 0.0 0.0 0.00 0.00 0.03 92 1011.9
20260507011742 5 99 0.0 0.0 0.00 0.00 0.03 91 1011.9
20260507011242 5 101 0.0 0.0 0.00 0.00 0.03 89 1012.1
20260507010741 6 128 0.0 0.0 0.00 0.00 0.03 87 1012.1
20260507010237 6 217 0.0 0.0 0.00 0.00 0.03 88 1012.1
20260507005737 5 217 0.0 0.0 0.00 0.00 0.03 89 1012.2
20260507005236 5 217 0.0 0.0 0.00 0.00 0.03 91 1012.2
20260507004736 5 217 0.0 0.0 0.00 0.00 0.00 91 1012.2
20260507004236 5 217 0.0 0.0 0.00 0.00 0.00 91 1012.2
20260507003752 5 217 0.0 0.0 0.00 0.00 0.00 91 1012.2
20260506233241 5 217 0.0 0.0 0.00 0.00 0.00 94 1012.6
20260506232737 5 217 0.0 0.0 0.00 0.00 0.00 95 1012.4
20260506232234 5 217 0.0 0.0 0.00 0.00 0.00 94 1012.4
20260506231734 5 217 0.0 0.0 0.00 0.00 0.00 94 1012.4
20260506231248 5 217 0.0 0.0 0.00 0.00 0.00 93 1012.2
20260506230745 5 220 0.0 0.0 0.00 0.00 0.00 92 1012.2
20260506230241 5 111 0.0 0.0 0.00 0.00 0.00 92 1012.2
20260506225740 5 101 0.0 0.0 0.00 0.00 0.00 94 1012.2
20260506225237 4 100 0.0 0.0 0.00 0.00 0.00 94 1012.2
20260506224741 5 108 0.0 0.0 0.00 0.00 0.00 92 1012.2
20260506224241 5 203 0.0 0.0 0.00 0.00 0.00 91 1012.2
20260506223740 5 205 0.0 0.0 0.00 0.00 0.00 90 1012.2
20260506223237 5 115 0.0 0.0 0.00 0.00 0.00 90 1012.2
20260506222753 5 110 0.0 0.0 0.00 0.00 0.00 92 1012.3
20260506222249 5 101 0.0 0.0 0.00 0.00 0.00 93 1012.3
20260506221747 5 103 0.0 0.0 0.00 0.00 0.00 93 1012.3
20260506221247 5 103 0.0 0.0 0.00 0.00 0.00 92 1012.3
20260506220746 5 133 0.0 0.0 0.00 0.00 0.00 92 1012.3
20260506220242 5 98 0.0 0.0 0.00 0.00 0.00 92 1012.3
20260506215738 5 94 0.0 0.0 0.00 0.00 2.46 93 1012.3
20260506215235 5 94 0.0 0.0 0.00 0.00 2.46 93 1012.3
20260506214749 5 94 0.0 0.0 0.00 0.00 2.46 93 1012.3
20260506214245 5 94 0.0 0.0 0.00 0.00 2.46 92 1012.4
20260506213740 5 94 0.0 0.0 0.00 0.00 2.46 92 1012.4
20260506213241 5 94 0.0 0.0 0.00 0.00 2.46 92 1012.4
20260506212741 5 101 0.0 0.0 0.00 0.00 2.44 93 1011.6
20260506212241 5 120 0.0 0.0 0.00 0.00 2.41 96 1011.6
20260506211741 5 229 0.0 0.0 0.00 0.00 2.41 96 1011.6
20260506211241 5 229 0.0 0.0 0.00 0.00 2.41 97 1011.5
20260506210741 4 229 0.0 0.0 0.00 0.00 2.41 97 1011.5
20260506210240 4 229 0.0 0.0 0.00 0.00 2.41 97 1011.5
20260506205737 4 229 0.0 0.0 0.00 0.00 2.41 97 1011.6
20260506205237 4 229 0.0 0.0 0.00 0.00 2.41 97 1011.6
20260506204736 4 229 0.0 0.0 0.00 0.00 2.41 97 1011.6
20260506204252 4 229 0.0 0.0 0.00 0.00 2.41 98 1011.9
20260506203748 4 229 0.0 0.0 0.00 0.00 2.41 98 1011.9
20260506203245 4 232 0.0 0.0 0.00 0.00 2.41 97 1011.9
20260506202743 4 233 0.0 0.0 0.00 0.00 2.41 98 1011.8
20260506202244 4 233 0.0 0.0 0.00 0.00 2.41 97 1011.8
20260506201744 4 231 0.0 0.0 0.00 0.00 2.41 98 1011.8
20260506201242 4 231 0.0 0.0 0.00 0.00 2.41 98 1011.4
20260506200738 4 244 0.0 0.0 0.00 0.00 2.41 97 1011.4
20260506200230 4 238 0.0 0.0 0.00 0.00 2.41 98 1011.4
20260506195750 4 108 0.0 0.0 0.00 0.00 2.41 98 1011.2
20260506195246 4 99 0.0 0.0 0.00 0.00 2.41 98 1011.2
20260506194745 4 94 0.0 0.0 0.00 0.00 2.41 98 1011.2
20260506194235 4 99 0.0 0.0 0.00 0.00 2.41 98 1011.0
20260506193734 4 94 0.0 0.0 0.00 0.00 2.41 98 1011.0
20260506193250 4 96 0.0 0.0 0.00 0.00 2.41 98 1011.0
20260506192746 4 96 0.0 0.0 0.00 0.00 2.41 98 1010.7
20260506192242 4 111 0.0 0.0 0.00 0.00 2.41 98 1010.7
20260506191741 4 107 0.0 0.0 0.00 0.00 2.39 98 1010.7
20260506191238 4 105 0.0 0.0 0.00 0.00 2.39 98 1010.5
20260506190741 4 98 0.0 0.0 0.00 0.00 2.39 98 1010.5
20260506190241 4 104 0.0 0.0 0.00 0.00 2.39 97 1010.5
20260506185741 4 97 0.0 0.0 0.00 0.00 2.39 97 1010.3
20260506185241 4 99 0.0 0.0 0.00 0.00 2.39 97 1010.3
20260506184743 4 108 0.0 0.0 0.00 0.00 2.39 97 1010.3
20260506184239 4 104 0.0 0.0 0.00 0.00 2.39 97 1010.3
20260506183735 4 99 0.0 0.0 0.00 0.00 2.39 97 1010.3
20260506183250 4 111 0.0 0.0 0.00 0.00 2.39 96 1010.3
20260506182747 5 109 0.0 0.0 0.00 0.00 2.39 96 1010.3
20260506182247 5 95 0.0 0.0 0.00 0.00 2.39 95 1010.3
20260506181746 5 102 0.0 0.0 0.00 0.00 2.39 95 1010.3
20260506181246 5 98 0.0 0.0 0.00 0.00 2.39 92 1011.1
20260506180745 5 103 0.0 0.0 0.00 0.00 2.36 91 1011.1
20260506180241 5 122 0.0 0.0 0.00 0.00 2.36 92 1011.1
20260506175741 5 66 0.0 0.0 0.00 0.00 2.36 91 1011.0
20260506175240 5 175 0.0 0.0 0.00 0.00 2.34 93 1011.0
20260506174736 5 195 0.0 0.0 0.00 0.00 2.31 92 1011.0
20260506174232 6 235 0.0 0.0 0.00 0.00 2.29 89 1011.1
20260506173732 5 25 0.0 0.0 0.00 0.00 2.26 91 1011.1
20260506173231 5 113 0.0 0.0 0.00 0.00 2.21 92 1011.1
20260506172750 5 114 0.0 0.0 0.00 0.00 2.18 91 1010.9
20260506172246 6 18 0.0 0.0 0.00 0.00 2.11 90 1010.9
20260506171742 6 18 0.0 0.0 0.00 0.00 2.11 88 1010.9
20260506171239 5 57 0.0 0.0 0.00 0.00 2.03 92 1010.8
20260506170739 5 360 0.0 0.0 0.00 0.00 2.01 94 1010.8
20260506170238 5 327 0.0 0.0 0.00 0.00 1.98 94 1010.8
20260506165738 5 302 0.0 0.0 0.00 0.00 1.98 93 1010.2
20260506165237 5 244 0.0 0.0 0.00 0.00 1.96 94 1010.2
20260506164737 5 227 0.0 0.0 0.00 0.00 1.93 94 1010.2
20260506164233 5 243 0.0 0.0 0.00 0.00 1.91 93 1009.5
20260506163749 6 259 0.0 0.0 0.00 0.00 1.85 93 1009.5
20260506163248 7 246 0.0 0.0 0.00 0.00 1.80 93 1009.5
20260506162745 7 255 0.0 0.0 0.00 0.00 1.75 92 1009.3
20260506162245 7 89 0.0 0.0 0.00 0.00 1.70 97 1009.3
20260506161744 7 228 0.0 0.0 0.00 0.00 1.65 97 1009.3
20260506161240 7 25 0.0 0.0 0.00 0.00 1.65 97 1009.2
20260506160747 7 52 0.0 0.0 0.00 0.00 1.63 97 1009.2
20260506160243 7 108 0.0 0.0 0.00 0.00 1.63 97 1009.2
20260506155739 7 98 0.0 0.0 0.00 0.00 1.63 97 1009.3
20260506155235 7 138 0.0 0.0 0.00 0.00 1.63 97 1009.3
20260506154734 7 90 0.0 0.0 0.00 0.00 1.63 97 1009.3
20260506154230 7 124 0.0 0.0 0.00 0.00 1.63 97 1009.4
20260506153748 7 92 0.0 0.0 0.00 0.00 1.63 97 1009.4
20260506153244 7 79 0.0 0.0 0.00 0.00 1.63 97 1009.4
20260506152744 7 78 0.0 0.0 0.00 0.00 1.63 97 1009.4
20260506152241 7 64 0.0 0.0 0.00 0.00 1.63 97 1009.4
20260506151740 7 110 0.0 0.0 0.00 0.00 1.60 97 1009.4
20260506151237 7 82 0.0 0.0 0.00 0.00 1.60 97 1009.6
20260506150737 7 92 0.0 0.0 0.00 0.00 1.55 97 1009.6
20260506150236 7 99 0.0 0.0 0.00 0.00 1.55 97 1009.6
20260506145753 7 97 0.0 0.0 0.00 0.00 1.55 97 1009.7
20260506145248 7 96 0.0 0.0 0.00 0.00 1.55 96 1009.7
20260506144745 7 86 0.0 0.0 0.00 0.00 1.55 96 1009.7
20260506144244 7 105 0.0 0.0 0.00 0.00 1.55 96 1009.8
20260506143740 7 96 0.0 0.0 0.00 0.00 1.55 96 1009.8
20260506143236 7 93 0.0 0.0 0.00 0.00 1.55 96 1009.8
20260506142731 7 117 0.0 0.0 0.00 0.00 1.55 96 1009.9
20260506142248 7 96 0.0 0.0 0.00 0.00 1.55 94 1009.9
20260506141744 7 109 0.0 0.0 0.00 0.00 1.55 93 1009.9
20260506141244 8 101 0.0 0.0 0.00 0.00 1.55 92 1010.4
20260506140740 7 91 0.0 0.0 0.00 0.00 1.55 92 1010.4
20260506140236 7 102 0.0 0.0 0.00 0.00 1.55 92 1010.4
20260506135735 7 110 0.0 0.0 0.00 0.00 1.52 93 1010.4
20260506135234 7 115 0.0 0.0 0.00 0.00 1.52 93 1010.4
20260506134731 7 98 0.0 0.0 0.00 0.00 1.52 92 1010.4
20260506134250 7 86 0.0 0.0 0.00 0.00 1.52 93 1010.7
20260506133746 7 105 0.0 0.0 0.00 0.00 1.52 92 1010.7
20260506133242 7 89 0.0 0.0 0.00 0.00 1.52 92 1010.7
20260506132740 7 98 0.0 0.0 0.00 0.00 1.52 92 1010.7
20260506132239 7 96 0.0 0.0 0.00 0.00 1.52 93 1010.7
20260506131735 7 82 0.0 0.0 0.00 0.00 1.52 96 1010.7
20260506131251 6 83 0.0 0.0 0.00 0.00 1.52 97 1010.9
20260506130746 6 91 0.0 0.0 0.00 0.00 1.52 97 1010.9
20260506130245 6 148 0.0 0.0 0.00 0.00 1.52 97 1010.9
20260506125748 6 97 0.0 0.0 0.00 0.00 1.52 97 1010.6
20260506125244 6 124 0.0 0.0 0.00 0.00 1.47 97 1010.6
20260506124744 6 44 0.0 0.0 0.00 0.00 1.45 97 1010.6
20260506124241 6 99 0.0 0.0 0.00 0.00 1.45 97 1010.6
20260506123738 6 89 0.0 0.0 0.00 0.00 1.45 97 1010.6
20260506123234 6 139 0.0 0.0 0.00 0.00 1.45 96 1010.6
20260506122734 6 202 0.0 0.0 0.00 0.00 1.45 96 1010.4
20260506122250 6 77 0.0 0.0 0.00 0.00 1.45 95 1010.4
20260506121746 6 152 0.0 0.0 0.00 0.00 1.45 95 1010.4
20260506121243 6 122 0.0 0.0 0.00 0.00 1.45 95 1010.5
20260506120739 6 101 0.0 0.0 0.00 0.00 1.45 96 1010.5
20260506120239 6 78 0.0 0.0 0.00 0.00 1.45 97 1010.5
20260506115734 6 83 0.0 0.0 0.00 0.00 1.45 96 1010.5
20260506115234 6 75 0.0 0.0 0.00 0.00 1.45 96 1010.5
20260506114734 6 68 0.0 0.0 0.00 0.00 1.45 96 1010.5
20260506114250 6 96 0.0 0.0 0.00 0.00 1.45 95 1010.4
20260506113745 7 98 0.0 0.0 0.00 0.00 1.45 93 1010.4
20260506113243 7 114 0.0 0.0 0.00 0.00 1.45 93 1010.4
20260506112743 7 93 0.0 0.0 0.00 0.00 1.45 93 1010.6
20260506112239 7 91 0.0 0.0 0.00 0.00 1.45 88 1010.6
20260506111739 7 30 0.0 0.0 0.00 0.00 1.45 91 1010.6
20260506111236 7 80 0.0 0.0 0.00 0.00 1.45 92 1010.9
20260506110753 7 72 0.0 0.0 0.00 0.00 1.45 92 1010.9
20260506110248 7 89 0.0 0.0 0.00 0.00 1.45 91 1010.9
20260506105744 7 86 0.0 0.0 0.00 0.00 1.45 89 1011.0
20260506105244 7 103 0.0 0.0 0.00 0.00 1.45 89 1011.0
20260506104740 7 121 0.0 0.0 0.00 0.00 1.45 91 1011.0
20260506104235 7 91 0.0 0.0 0.00 0.00 1.45 91 1011.0
20260506103734 6 103 0.0 0.0 0.00 0.00 1.45 91 1011.0
20260506103235 6 76 0.0 0.0 0.00 0.00 1.45 92 1011.0
20260506102736 6 77 0.0 0.0 0.00 0.00 1.45 96 1011.1
20260506102236 6 102 0.0 0.0 0.00 0.00 1.45 97 1011.1
20260506101732 6 72 0.0 0.0 0.00 0.00 1.45 98 1011.1
20260506101253 6 76 0.0 0.0 0.00 0.00 1.45 98 1011.4
20260506100747 6 33 0.0 0.0 0.00 0.00 1.45 98 1011.4
20260506100244 5 61 0.0 0.0 0.00 0.00 1.45 98 1011.4